Showing default

ORBCOMM FM 25, 25479

Orbit data source: Space-Track

ORBCOMM FM 25, 25479 is a payload satellite owned by Orbcomm (US) in LEO that was launched on Wed, 23 Sep 1998 UTC via a PEGASUS XL/HAPS launch vehicle from the Pegasus Launch, Eastern Range Air Space (ERAS). Payload-class satellites include a variety of spacecraft equipped with specific instruments for various scientific and technological missions. These include communications satellites like Starlink; space stations such as the ISS; scientific satellites like the Hubble; Earth observation satellites from companies like Planet Labs, Umbra, and HawkEye 360; GPS; miniature CubeSats for education and research; and military/defense satellites.

Loading next visibility...
Identifier
25479, 1998-053E
Orbit
LEO
Country
Flag of USUS / ORB
Related business
Manufacturer
OSC-Germantown
Mission
Non-operational Commercial Communications
Bus & Motor
MICROSTAR, Unknown motor
Mass
42 kg wet, 42 kg dry
Launch date (UTC)
1998-09-23 (27 years ago)
Launch vehicle
PEGASUS XL/HAPS
Launch site
Pegasus Launch, Eastern Range Air Space (ERAS)
Object type
Payload
Rocket body
Debris
Shape & HBR
Cyl + 2 Pan, 4.2 m
Radar Cross Section
1.484 m², Medium (>0.1 m² and < 1m²)

Expand to show TLE details & history
Last TLE update: 23 hours ago

TLE from 23 hours ago
0 ORBCOMM FM 25
1 25479U 98053E   25348.66261713  .00001443  00000-0  51289-3 0  9996
2 25479  45.0058 131.3533 0004238  85.6288 274.5045 14.38626786423720
Epoch: 2025-12-14T15:54Z
TLE epoch observation values (Epoch: 2025-12-14T15:54:10.120Z)
Latitude
0.00002°
Longitude
169.23884°
Altitude
762.802 km
Speed
7.475 km/s
True Right ascension
08h 45m 24s
True Declination
0° 00' 00"
Sunlit
Object was in full shadow at epoch
Visualization orbit readout
Latitude
Unknown
Longitude
Unknown
Altitude
Unknown
Speed
Unknown
Apparent Right ascension
Unknown
Apparent Declination
Unknown
Sunlit
N/A
Visualization observer readout
Local Sidereal Time
13:24:43
Azimuth
Unknown
Elevation
Unknown
Doppler factor
Unknown
Orbital elements
Apogee altitude
767.612 km
Perigee altitude
761.558 km
Semi-major axis
7,142.722 km
Eccentricity
0.00042
Inclination
45.0058°
RAAN
131.3533°
Arg. of periapsis
85.6288°
True anomaly
274.45608°
Mean anomaly
274.5045°
Eccentric anomaly
274.48029°
Mean motion
3.5954 °/min
Orbital period
100.13 mins
BSTAR
0.00051289
Loading maneuver chart data...
Computing Atmospheric mass density...
Loading historical data...
Loading historical data...
Loading historical data...
Loading historical data...
Loading historical data...
Loading historical data...
Loading historical data...

Documentation

Showing up to 5 results
|